Station CECC1 - 9419750 - Crescent City, CA Image indicating link to RSS feed of recent meteorological observations for station CECC1


Conditions at CECC1 as of
(8:30 am PDT)
1530 GMT on 04/18/2024:
     

Click on the graph icon in the table below to see a time series plot of the last five days of that observation.

5-day plot - Wind Direction Wind Direction (WDIR): SE ( 130 deg true )
5-day plot - Wind Speed Wind Speed (WSPD): 1.0 kts
5-day plot - Wind Gust Wind Gust (GST): 1.9 kts
5-day plot - Atmospheric Pressure Atmospheric Pressure (PRES):30.00 in
5-day plot - Air Temperature Air Temperature (ATMP): 51.3 °F
5-day plot - Water Temperature Water Temperature (WTMP): 50.4 °F
5-day plot - Wind Speed at 10 Meters Wind Speed at 10 meters (WSPD10M): 1.9 kts
5-day plot - Wind Speed at 20 Meters Wind Speed at 20 meters (WSPD20M): 1.9 kts
5-day plot -  Wind Speed, Wind Gust and Atmospheric Pressure Combined plot of Wind Speed, Gust, and Air Pressure
NOS Water Level Observation Network Water Level
Previous observations
TIME
(PDT)
5-day plot - Wind Direction
WDIR
 
5-day plot - Wind Speed
WSPD
kts
5-day plot - Wind Gust
GST
kts
5-day plot - Wave Height
WVHT
ft
5-day plot - Dominant Wave Period
DPD
sec
5-day plot - Average Wave Period
APD
sec
5-day plot - Mean Wave Direction
MWD
 
5-day plot - Atmospheric Pressure
PRES
in
5-day plot - Pressure Tendency
PTDY
in
5-day plot - Air Temperature
ATMP
°F
5-day plot - Water Temperature
WTMP
°F
5-day plot - Dew Point
DEWP
°F
5-day plot - Salinity
SAL
psu
5-day plot - Visibility
VIS
nmi
5-day plot - Tide (above MLLW)
TIDE
ft
2024-04-18 08:24 am- 0.0 1.0----30.00- 51.6 50.4----
2024-04-18 08:18 am- 0.0 0.0----30.00- 51.8 50.4----
2024-04-18 08:12 am- 0.0 1.0----30.00- 51.6 50.4----
2024-04-18 08:06 am- 0.0 1.0----30.00- 51.8 50.4----
2024-04-18 08:00 am- 0.0 1.9----30.00+0.00 50.7 50.4----
2024-04-18 07:54 am- 0.0 1.9----30.00- 49.5 50.4----
2024-04-18 07:48 am- 0.0 1.9------------
2024-04-18 07:42 am SE 1.0 2.9------------
2024-04-18 07:36 am E 1.9 2.9------------
2024-04-18 07:30 amESE 1.9 4.1----29.99- 46.6 50.4----
2024-04-18 07:24 amESE 1.0 1.9----29.99- 47.1 50.4----
2024-04-18 07:18 am- 0.0 1.9----29.99- 47.1 50.4----
2024-04-18 07:12 am NE 1.0 1.9----29.99- 46.2 50.4----
2024-04-18 07:06 am N 1.9 1.9----29.99- 46.2 50.4----
2024-04-18 07:00 amENE 1.0 1.9----29.99-0.01 44.8 50.4----
2024-04-18 06:54 am N 1.9 1.9----29.99- 44.8 50.4----
2024-04-18 06:48 am- 0.0 2.9----29.99- 45.7 50.4----
2024-04-18 06:42 am N 1.0 2.9----29.99- 43.9 50.4----
2024-04-18 06:36 amNNW 1.9 4.1----29.99- 44.4 50.4----
2024-04-18 06:30 am- 0.0 2.9----29.98- 45.5 50.4----
2024-04-18 06:24 am E 1.9 2.9----29.98- 46.4 50.2----
2024-04-18 06:18 am E 2.9 4.1------------
2024-04-18 06:12 am E 2.9 4.1----29.98- 45.5 50.4----
2024-04-18 06:06 amESE 2.9 4.1----29.98- 44.8 50.4----
2024-04-18 06:00 amESE 1.0 2.9----29.98-0.02 44.2 50.2----
2024-04-18 05:54 am SE 1.9 1.9----29.98- 44.6 50.2----
2024-04-18 05:48 amESE 1.0 1.9----29.98- 43.7 50.2----
2024-04-18 05:42 am- 0.0 1.0----29.98- 43.3 50.2----
2024-04-18 05:36 am NW 1.0 1.9----29.98- 43.3 50.2----
2024-04-18 05:30 amNNW 1.0 2.9----29.98- 43.0 50.2----
2024-04-18 05:24 amENE 1.0 1.9----29.98- 44.4 50.2----
2024-04-18 05:18 amESE 1.9 2.9----29.98- 44.6 50.2----
2024-04-18 05:12 am E 2.9 2.9----29.98- 44.2 50.2----
2024-04-18 05:06 am E 2.9 4.1----29.99- 43.7 50.2----
2024-04-18 05:00 amENE 1.0 2.9----29.99-0.03 43.3 50.4----
2024-04-18 04:54 am E 1.9 5.1----29.99- 43.2 50.4----
2024-04-18 04:48 amENE 2.9 2.9----29.99- 43.2 50.4----
2024-04-18 04:42 amNNW 1.0 2.9----29.99- 44.1 50.4----
2024-04-18 04:36 amNNW 2.9 5.1----30.00- 44.4 50.4----
2024-04-18 04:30 am NW 4.1 5.1----30.00- 45.0 50.4----
2024-04-18 04:24 am NW 4.1 4.1----30.00- 44.1 50.4----
2024-04-18 04:18 am NW 1.9 1.9----29.99- 43.7 50.4----
2024-04-18 04:12 am- 0.0 1.9----30.00- 43.0 50.4----
2024-04-18 04:06 am N 1.9 2.9----30.00- 43.0 50.4----
2024-04-18 04:00 amNNE 2.9 2.9----30.00-0.03 43.9 50.4----
2024-04-18 03:54 am N 1.9 1.9----30.00- 43.3 50.4----
2024-04-18 03:48 am N 1.0 1.9----30.00-- 50.4----
2024-04-18 03:42 am NE 1.9 2.9----30.01- 43.9 50.4----
2024-04-18 03:36 am E 1.9 2.9----30.01- 43.7 50.4----
2024-04-18 03:30 am NE 1.9 4.1----30.01- 43.3 50.4----
2024-04-18 03:24 am N 2.9 2.9----30.01- 43.5 50.4----
2024-04-18 03:18 am N 2.9 4.1----30.01- 43.5 50.4----
2024-04-18 03:12 am N 1.9 1.9----30.01- 43.3 50.4----
2024-04-18 03:06 amNNW 1.0 1.0----30.01- 44.4 50.4----
2024-04-18 03:00 am- 0.0 4.1----30.01-0.03 44.4 50.4----
2024-04-18 02:54 am NE 2.9 4.1----30.01- 44.8 50.4----
2024-04-18 02:48 amNNE 2.9 2.9----30.01- 43.9 50.4----
2024-04-18 02:42 amNNE 1.9 2.9----30.01- 43.9 50.4----
2024-04-18 02:36 am N 1.0 2.9----30.01- 44.1 50.4----
2024-04-18 02:30 am N 2.9 4.1----30.01- 45.0 50.4----
2024-04-18 02:24 am N 2.9 4.1----30.01- 45.1 50.4----
2024-04-18 02:18 amNNE 2.9 4.1----30.01-- 50.4----
2024-04-18 02:12 amNNE 2.9 4.1----30.01- 44.8 50.4----
2024-04-18 02:06 amNNE 2.9 2.9----30.01- 45.5 50.4----
2024-04-18 02:00 am NE 1.9 4.1----30.02-0.03 45.7 50.4----
2024-04-18 01:54 am N 1.9 2.9----30.02- 46.2 50.4----
2024-04-18 01:48 amNNW 1.0 2.9----30.02- 46.8 50.5----
2024-04-18 01:42 amNNE 1.0 4.1----30.02- 46.4 50.4----
2024-04-18 01:36 am N 1.0 2.9----30.02- 45.7 50.4----
2024-04-18 01:30 am NE 1.9 1.9----30.02- 45.5 50.5----
2024-04-18 01:24 am- 0.0 2.9----30.02- 46.8 50.5----
2024-04-18 01:18 am- 0.0 1.9----30.03- 46.6 50.4----
2024-04-18 01:12 amNNE 1.9 1.9----30.03- 46.0 50.4----
2024-04-18 01:06 am- 0.0 1.9----30.03- 46.9 50.4----
2024-04-18 01:00 am NE 1.0 1.9----30.03-0.01 46.9 50.4----
2024-04-18 12:54 am- 0.0 2.9----30.03- 46.4 50.4----
2024-04-18 12:48 am NE 2.9 2.9----30.03- 47.1 50.4----
2024-04-18 12:42 amNNE 2.9 4.1----30.03- 46.9 50.4----
2024-04-18 12:36 am NE 1.9 2.9----30.03- 47.1 50.4----
2024-04-18 12:30 amNNE 1.9 2.9----30.03- 46.8 50.4----
2024-04-18 12:24 am N 1.9 1.9----30.03- 46.9 50.5----
2024-04-18 12:18 am- 0.0 1.9----30.03- 47.1 50.4----
2024-04-18 12:12 am- 0.0 1.9----30.03- 47.5 50.4----
2024-04-18 12:06 am NE 1.0 1.9----30.03- 48.2 50.4----
2024-04-18 12:00 amNNE 1.9 1.9----30.03-0.01 47.8 50.4----
2024-04-17 11:54 pm- 0.0 1.0----30.03- 49.1 50.4----
2024-04-17 11:48 pm- 0.0 1.9----30.03-- 50.2----
2024-04-17 11:42 pmNNE 1.9 2.9----30.03- 47.8 50.4----
2024-04-17 11:36 pm N 1.0 1.9----30.04- 48.6 50.4----
2024-04-17 11:30 pm- 0.0 2.9----30.04- 48.7 50.2----
2024-04-17 11:24 pmNNE 1.9 2.9----30.04- 48.9 50.2----
2024-04-17 11:18 pm- 0.0 1.9----30.03-- 50.4----
2024-04-17 11:12 pmENE 1.0 1.9----30.04- 49.8 50.2----
2024-04-17 11:06 pmESE 1.9 1.9----30.04- 50.2 50.2----
2024-04-17 11:00 pm SE 1.9 4.1----30.04+0.01 49.8 50.2----
2024-04-17 10:54 pm E 1.9 2.9----30.04- 48.7 50.2----
2024-04-17 10:48 pmESE 1.9 5.1----30.04-- 50.2----
2024-04-17 10:42 pm SE 4.1 5.1----30.04- 49.5 50.2----
2024-04-17 10:36 pmESE 1.9 2.9----30.05- 49.5 50.2----
2024-04-17 10:30 pm SE 1.9 2.9----30.05- 50.4 50.2----
2024-04-17 10:24 pmSSE 1.9 2.9----30.05- 51.1 50.2----
2024-04-17 10:18 pm- 0.0 1.9----30.04-- 50.2----
2024-04-17 10:12 pm- 0.0 1.9----30.04- 50.4 50.2----
2024-04-17 10:06 pm- 0.0 1.0----30.03- 50.2 50.4----
2024-04-17 10:00 pm- 0.0 2.9----30.03-0.01 50.2 50.2----
2024-04-17 09:54 pm E 1.0 2.9----30.03- 50.7 50.4----
2024-04-17 09:48 pmENE 1.9 2.9----30.03-- 50.2----
2024-04-17 09:42 pmNNE 1.0 1.9----30.04- 50.5 50.2----
2024-04-17 09:36 pmNNE 1.9 1.9----30.04- 50.7 50.2----
2024-04-17 09:30 pm- 0.0 1.0----30.04- 51.3 50.2----
2024-04-17 09:24 pm- 0.0 1.9----30.04- 51.4 50.2----
2024-04-17 09:18 pm E 1.9 1.9----30.04- 51.6 50.2----
2024-04-17 09:12 pm- 0.0 1.0----30.04- 52.0 50.2----
2024-04-17 09:06 pm- 0.0 1.0----30.04- 52.3 50.2----
2024-04-17 09:00 pm- 0.0 1.0----30.04-0.02 52.2 50.2----
2024-04-17 08:54 pmNNE 1.0 1.9----30.04- 52.0 50.2----
2024-04-17 08:48 pm- 0.0 1.9----30.04- 52.3 50.2----
2024-04-17 08:42 pmENE 1.0 2.9----30.04- 52.3 50.4----
2024-04-17 08:36 pm NE 1.9 2.9----30.04- 52.3 50.2----
2024-04-17 08:30 pm N 1.9 2.9----30.04- 52.3 50.2----
2024-04-17 08:24 pm N 2.9 4.1----30.04- 52.3 50.4----
2024-04-17 08:18 pm N 2.9 4.1----30.04- 52.5 50.4----
2024-04-17 08:12 pm N 4.1 5.1----30.03- 52.7 50.4----
2024-04-17 08:06 pm N 5.1 6.0----30.03- 52.9 50.4----
2024-04-17 08:00 pm N 5.1 6.0----30.03-0.05 53.1 50.4----
2024-04-17 07:54 pm N 5.1 6.0----30.03- 53.4 50.4----
2024-04-17 07:48 pm N 5.1 6.0----30.03- 53.8 50.5----
2024-04-17 07:42 pm N 4.1 6.0----30.03- 54.0 50.5----
2024-04-17 07:36 pm N 5.1 7.0----30.03- 54.1 50.5----
2024-04-17 07:30 pm N 4.1 8.0----30.03- 54.3 50.5----
2024-04-17 07:24 pm N 7.0 8.9----30.04- 54.3 50.5----
2024-04-17 07:18 pm N 7.0 8.9----30.04- 54.3 50.5----
2024-04-17 07:12 pm N 7.0 11.1----30.04- 54.7 50.5----
2024-04-17 07:06 pm N 7.0 9.9----30.04- 54.9 50.4----
2024-04-17 07:00 pm N 7.0 12.0----30.05-0.05 55.0 50.5----
2024-04-17 06:54 pm N 8.9 13.0----30.05- 55.0 50.5----
2024-04-17 06:48 pm N 8.9 12.0----30.05- 55.6 50.7----
2024-04-17 06:42 pm N 9.9 13.0----30.05- 55.8 50.7----
2024-04-17 06:36 pm N 8.9 15.0----30.05- 55.8 50.5----
2024-04-17 06:30 pm N 9.9 15.0----30.06- 55.9 50.7----
2024-04-17 06:24 pm N 9.9 15.0----30.06- 55.6 50.7----
2024-04-17 06:18 pm N 13.0 15.9----30.06- 55.4 50.9----
2024-04-17 06:12 pm N 9.9 15.9----30.06- 55.6 50.9----
2024-04-17 06:06 pm N 12.0 15.0----30.06- 55.4 50.9----
2024-04-17 06:00 pm N 9.9 15.9----30.06-0.06 55.2 50.7----
2024-04-17 05:54 pm N 13.0 17.1----30.07- 55.0 50.7----
2024-04-17 05:48 pm N 12.0 17.1----30.07- 55.2 50.9----
2024-04-17 05:42 pm N 9.9 15.9----30.07- 55.2 50.9----
2024-04-17 05:36 pm N 13.0 15.9----30.07- 55.2 50.9----
2024-04-17 05:30 pm N 9.9 17.1----30.07- 55.8 50.9----
2024-04-17 05:24 pm N 13.0 18.1----30.07- 55.0 50.9----
2024-04-17 05:18 pm N 11.1 17.1----30.08- 55.4 50.9----
2024-04-17 05:12 pm N 11.1 18.1----30.08- 55.4 51.3----
2024-04-17 05:06 pm N 13.0 19.0----30.08- 55.4 51.6----
2024-04-17 05:00 pm N 15.0 19.0----30.08-0.05 54.9 51.8----
2024-04-17 04:54 pm N 12.0 15.9----30.09- 55.6 51.8----
2024-04-17 04:48 pm N 13.0 18.1----30.09-- 51.8----
2024-04-17 04:42 pm N 13.0 20.0----30.09- 55.6 52.0----
2024-04-17 04:36 pmNNW 12.0 19.0----30.09- 55.9 52.0----
2024-04-17 04:30 pmNNW 13.0 17.1----30.09- 55.6 52.0----
2024-04-17 04:24 pm N 14.0 18.1----30.09- 55.9 51.8----
2024-04-17 04:18 pm N 13.0 17.1----30.09- 55.9 51.8----
2024-04-17 04:12 pm N 15.0 19.0----30.09- 55.8 52.0----
2024-04-17 04:06 pm N 13.0 18.1----30.10- 55.8 52.0----
2024-04-17 04:00 pm N 14.0 17.1----30.10-0.05 55.8 52.0----
2024-04-17 03:54 pm N 13.0 17.1----30.10- 56.3 52.0----
2024-04-17 03:48 pm N 13.0 15.9----30.11- 56.3 52.0----
2024-04-17 03:42 pm N 12.0 17.1----30.11- 56.3 52.0----
2024-04-17 03:36 pm N 14.0 17.1----30.11- 56.3 52.0----
2024-04-17 03:30 pm N 11.1 15.0----30.11- 56.8 52.0----
2024-04-17 03:24 pm N 13.0 15.9----30.11- 56.8 52.0----
2024-04-17 03:18 pm N 11.1 14.0----30.12- 57.2 52.0----
2024-04-17 03:12 pm N 12.0 14.0----30.12- 57.4 52.0----
2024-04-17 03:06 pm N 8.9 14.0----30.12- 57.9 51.8----
2024-04-17 03:00 pmNNW 9.9 14.0----30.12-0.04- 51.8----
2024-04-17 02:54 pmNNW 9.9 15.0----30.12-- 51.8----
2024-04-17 02:48 pmNNW 11.1 15.0----30.12- 57.2 51.8----
2024-04-17 02:42 pmNNW 8.9 15.0----30.12- 58.1 51.8----
2024-04-17 02:36 pmNNW 8.9 14.0----30.13- 58.3 51.8----
2024-04-17 02:30 pmNNW 11.1 15.9----30.13- 57.9 51.8----
2024-04-17 02:24 pmNNW 9.9 14.0----30.13- 58.1 51.8----
2024-04-17 02:18 pmNNW 8.9 15.0----30.13- 58.1 51.8----
2024-04-17 02:12 pmNNW 11.1 14.0----30.13- 57.7 51.8----
2024-04-17 02:06 pmNNW 11.1 15.0----30.13- 57.7 51.8----
2024-04-17 02:00 pmNNW 11.1 14.0----30.14-0.04 58.1 51.6----
2024-04-17 01:54 pmNNW 9.9 14.0----30.14- 57.9 51.6----
2024-04-17 01:48 pmNNW 9.9 14.0----30.14- 57.9 51.6----
2024-04-17 01:42 pm NW 11.1 13.0----30.14- 57.6 51.6----
2024-04-17 01:36 pmNNW 8.9 13.0----30.14- 57.7 51.6----
2024-04-17 01:30 pmNNW 11.1 14.0----30.14- 57.6 51.6----
2024-04-17 01:24 pmNNW 11.1 13.0----30.14- 57.7 51.6----
2024-04-17 01:18 pmNNW 11.1 14.0----30.14- 57.6 51.8----
2024-04-17 01:12 pmNNW 12.0 15.0----30.15- 57.4 51.8----
2024-04-17 01:06 pmNNW 11.1 13.0----30.15- 57.4 51.8----
2024-04-17 01:00 pmNNW 11.1 14.0----30.15-0.03 57.2 51.6----
2024-04-17 12:54 pmNNW 12.0 15.0----30.15- 57.2 51.4----
2024-04-17 12:48 pmNNW 9.9 15.0----30.15- 57.4 51.4----
2024-04-17 12:42 pmNNW 9.9 15.0----30.15- 57.2 51.3----
2024-04-17 12:36 pmNNW 12.0 15.0----30.15- 57.0 51.3----
2024-04-17 12:30 pmNNW 12.0 15.0----30.15- 56.8 51.1----
2024-04-17 12:24 pmNNW 12.0 17.1----30.16- 57.0 51.3----
2024-04-17 12:18 pmNNW 13.0 15.0----30.16- 56.8 51.3----
2024-04-17 12:12 pmNNW 11.1 15.0----30.16- 56.8 51.1----
2024-04-17 12:06 pmNNW 12.0 15.9----30.16- 56.7 51.1----
2024-04-17 12:00 pmNNW 13.0 15.9----30.16-0.04 56.3 51.1----
2024-04-17 11:54 amNNW 14.0 17.1----30.16- 56.3 51.1----
2024-04-17 11:48 amNNW 14.0 17.1----30.16- 56.3 51.1----
2024-04-17 11:42 amNNW 15.0 18.1----30.16- 55.9 51.1----
2024-04-17 11:36 amNNW 14.0 17.1----30.17- 56.1 50.9----
2024-04-17 11:30 amNNW 12.0 14.0----30.17- 56.1 50.9----
2024-04-17 11:24 amNNW 14.0 18.1----30.17- 55.9 50.9----
2024-04-17 11:18 am NW 15.0 15.9----30.17- 55.8 50.9----
2024-04-17 11:12 amNNW 12.0 15.0----30.17- 56.1 50.9----
2024-04-17 11:06 amNNW 11.1 15.9----30.18- 56.1 50.9----
2024-04-17 11:00 amNNW 13.0 15.0----30.17-0.03 55.9 50.9----
2024-04-17 10:54 amNNW 11.1 15.0----30.17- 55.8 50.9----
2024-04-17 10:48 amNNW 11.1 14.0----30.17- 55.6 50.9----
2024-04-17 10:42 amNNW 12.0 15.0----30.17- 55.4 50.9----
2024-04-17 10:36 amNNW 13.0 15.9----30.17- 55.0 50.9----
2024-04-17 10:30 amNNW 13.0 15.0----30.17- 54.7 50.9----
2024-04-17 10:24 amNNW 11.1 15.9----30.18- 54.9 50.9----
2024-04-17 10:18 amNNW 11.1 14.0----30.17- 54.3 50.7----
2024-04-17 10:12 amNNW 9.9 14.0----30.18- 54.0 50.7----
2024-04-17 10:06 amNNW 9.9 13.0----30.18- 54.1 50.7----
2024-04-17 10:00 amNNW 9.9 12.0----30.18-0.02 54.0 50.7----
2024-04-17 09:54 amNNW 11.1 13.0----30.18- 53.6 50.7----
2024-04-17 09:48 amNNW 11.1 13.0----30.18- 53.1 50.7----
2024-04-17 09:42 amNNW 9.9 12.0----30.18- 52.9 50.7----
2024-04-17 09:36 amNNW 9.9 12.0----30.18- 52.9 50.7----
2024-04-17 09:30 amNNW 11.1 12.0----30.19- 52.5 50.7----
2024-04-17 09:24 amNNW 9.9 12.0----30.19- 52.3 50.9----
2024-04-17 09:18 amNNW 9.9 11.1----30.19- 52.2 50.7----
2024-04-17 09:12 amNNW 7.0 9.9----30.19- 52.3 50.7----
2024-04-17 09:06 amNNW 8.9 9.9----30.19- 51.8 50.9----
2024-04-17 09:00 amNNW 7.0 8.9----30.20+0.00 51.4 50.9----
2024-04-17 08:54 amNNW 6.0 8.9----30.20- 51.8 50.9----